DLH9HL ENZV-EDDM

Flight info

Callsign DLH9HL
Flight time N/A
Altitude 37000
Route BIVKI DCT ATTUS DCT SODRO/N0465F310 T703 LULAR/N0468F300 T105 LANDU LANDU2B
Aircraft A320/M-SDE3FGHIRWY/LB1

Departure

Time 2026-04-12 10:59
Airport Stavanger Airport, Sola (ENZV)

Arrival

Time N/A
Airport Munich Airport (EDDM)
Time Latitude Longitude Altitude Speed Heading
2026-04-12 10:16 58.88160 5.63068 31 ft 0 kts 315°
2026-04-12 10:48 58.88158 5.63072 29 ft 2 kts 315°
2026-04-12 10:48 58.88145 5.63097 29 ft 3 kts 315°
2026-04-12 10:48 58.88130 5.63125 30 ft 3 kts 315°
2026-04-12 10:48 58.88117 5.63150 31 ft 3 kts 314°
2026-04-12 10:49 58.88105 5.63180 27 ft 3 kts 294°
2026-04-12 10:49 58.88100 5.63214 27 ft 3 kts 258°
2026-04-12 10:49 58.88107 5.63243 28 ft 2 kts 223°
2026-04-12 10:49 58.88111 5.63251 28 ft 0 kts 221°
2026-04-12 10:50 58.88112 5.63251 28 ft 1 kts 221°
2026-04-12 10:54 58.88111 5.63251 28 ft 0 kts 221°
2026-04-12 10:55 58.88094 5.63223 28 ft 6 kts 217°
2026-04-12 10:55 58.88034 5.63234 29 ft 12 kts 138°
2026-04-12 10:55 58.87999 5.63369 31 ft 11 kts 73°
2026-04-12 10:55 58.88098 5.63436 30 ft 19 kts 359°
2026-04-12 10:56 58.88229 5.63430 30 ft 20 kts 359°
2026-04-12 10:56 58.88369 5.63428 31 ft 19 kts 359°
2026-04-12 10:56 58.88507 5.63421 31 ft 22 kts 359°
2026-04-12 10:56 58.88667 5.63417 32 ft 23 kts 359°
2026-04-12 10:57 58.88820 5.63413 31 ft 22 kts 360°
2026-04-12 10:57 58.88968 5.63410 28 ft 21 kts 359°
2026-04-12 10:57 58.89114 5.63405 29 ft 21 kts 359°
2026-04-12 10:57 58.89256 5.63401 25 ft 20 kts 359°
2026-04-12 10:58 58.89342 5.63509 19 ft 16 kts 86°
2026-04-12 10:58 58.89321 5.63712 19 ft 14 kts 137°
2026-04-12 10:58 58.89238 5.63739 20 ft 11 kts 179°
2026-04-12 10:58 58.89134 5.63742 22 ft 29 kts 179°
2026-04-12 10:59 58.88693 5.63755 28 ft 94 kts 180°
2026-04-12 10:59 58.87882 5.63782 215 ft 126 kts 167°
2026-04-12 10:59 58.87013 5.63777 910 ft 125 kts 169°
2026-04-12 10:59 58.86107 5.63793 1399 ft 140 kts 170°
2026-04-12 11:00 58.85067 5.63841 1750 ft 158 kts 171°
2026-04-12 11:00 58.83894 5.63908 2089 ft 181 kts 172°
2026-04-12 11:00 58.82543 5.63972 2517 ft 206 kts 174°
2026-04-12 11:00 58.81064 5.64029 3269 ft 216 kts 175°
2026-04-12 11:01 58.79547 5.64067 4248 ft 219 kts 176°
2026-04-12 11:01 58.78051 5.64580 5154 ft 222 kts 157°
2026-04-12 11:01 58.76728 5.66211 6020 ft 228 kts 148°
2026-04-12 11:01 58.75429 5.68025 6841 ft 234 kts 149°
2026-04-12 11:02 58.74099 5.69904 7628 ft 240 kts 149°
2026-04-12 11:02 58.72744 5.71821 8453 ft 244 kts 149°
2026-04-12 11:02 58.71357 5.73777 9245 ft 250 kts 150°
2026-04-12 11:02 58.69939 5.75772 10002 ft 256 kts 149°
2026-04-12 11:03 58.68447 5.77857 10362 ft 276 kts 150°
2026-04-12 11:03 58.66818 5.80117 10613 ft 300 kts 149°
2026-04-12 11:03 58.65061 5.82558 10790 ft 323 kts 148°
2026-04-12 11:03 58.63195 5.85155 11120 ft 338 kts 148°
2026-04-12 11:04 58.61281 5.87831 11814 ft 342 kts 148°
2026-04-12 11:04 58.59352 5.90531 12549 ft 344 kts 148°
2026-04-12 11:04 58.57392 5.93265 13117 ft 352 kts 148°
2026-04-12 11:04 58.55400 5.96033 13793 ft 355 kts 148°
2026-04-12 11:05 58.53380 5.98832 14303 ft 362 kts 148°
2026-04-12 11:05 58.51332 6.01670 14899 ft 365 kts 147°
2026-04-12 11:05 58.49263 6.04533 15488 ft 368 kts 147°
2026-04-12 11:05 58.47181 6.07413 16096 ft 370 kts 147°
2026-04-12 11:06 58.45094 6.10295 16798 ft 369 kts 148°
2026-04-12 11:06 58.43031 6.13134 17366 ft 372 kts 148°
2026-04-12 11:06 58.40904 6.16053 18011 ft 373 kts 148°
2026-04-12 11:06 58.38784 6.18955 18499 ft 376 kts 147°
2026-04-12 11:07 58.36639 6.21886 18863 ft 382 kts 148°
2026-04-12 11:07 58.34441 6.24625 19299 ft 383 kts 154°
2026-04-12 11:07 58.32019 6.26738 19762 ft 383 kts 160°
2026-04-12 11:07 58.29528 6.28741 20274 ft 385 kts 160°
2026-04-12 11:08 58.27051 6.30746 20764 ft 387 kts 160°
2026-04-12 11:08 58.24574 6.32755 21234 ft 389 kts 160°
2026-04-12 11:08 58.22112 6.34747 21683 ft 391 kts 161°
2026-04-12 11:08 58.19607 6.36770 22123 ft 393 kts 161°
2026-04-12 11:09 58.17086 6.38806 22557 ft 395 kts 161°
2026-04-12 11:09 58.14550 6.40850 22994 ft 397 kts 161°
2026-04-12 11:09 58.12003 6.42898 23415 ft 399 kts 161°
2026-04-12 11:09 58.09442 6.44949 23784 ft 401 kts 161°
2026-04-12 11:10 58.06868 6.47009 24105 ft 403 kts 161°
2026-04-12 11:10 58.04279 6.49080 24438 ft 405 kts 161°
2026-04-12 11:10 58.01678 6.51156 24770 ft 407 kts 161°
2026-04-12 11:10 57.99066 6.53234 25093 ft 409 kts 162°
2026-04-12 11:11 57.96442 6.55318 25382 ft 411 kts 161°
2026-04-12 11:11 57.93794 6.57419 25687 ft 413 kts 162°
2026-04-12 11:11 57.91139 6.59520 25989 ft 415 kts 162°
2026-04-12 11:11 57.88473 6.61627 26273 ft 417 kts 162°
2026-04-12 11:12 57.85793 6.63748 26545 ft 419 kts 161°
2026-04-12 11:12 57.83100 6.65873 26814 ft 421 kts 162°
2026-04-12 11:12 57.80391 6.68001 27090 ft 423 kts 162°
2026-04-12 11:12 57.77712 6.70102 27334 ft 424 kts 161°
2026-04-12 11:13 57.74994 6.72233 27678 ft 424 kts 161°
2026-04-12 11:13 57.72269 6.74372 28049 ft 424 kts 162°
2026-04-12 11:13 57.69550 6.76505 28434 ft 424 kts 162°
2026-04-12 11:13 57.66826 6.78638 28834 ft 423 kts 162°
2026-04-12 11:14 57.64114 6.80756 29219 ft 423 kts 162°
2026-04-12 11:14 57.61401 6.82864 29609 ft 422 kts 162°
2026-04-12 11:14 57.58690 6.84967 30002 ft 422 kts 162°
2026-04-12 11:14 57.55977 6.87068 30333 ft 421 kts 162°
2026-04-12 11:15 57.53270 6.89168 30655 ft 421 kts 162°
2026-04-12 11:15 57.50571 6.91260 30980 ft 420 kts 162°
2026-04-12 11:15 57.47877 6.93348 31304 ft 419 kts 162°
2026-04-12 11:15 57.45180 6.95428 31626 ft 419 kts 163°
2026-04-12 11:16 57.42493 6.97490 31959 ft 418 kts 163°
2026-04-12 11:16 57.39804 6.99544 32275 ft 418 kts 163°
2026-04-12 11:16 57.37112 7.01605 32601 ft 418 kts 162°
2026-04-12 11:16 57.34432 7.03663 32914 ft 417 kts 162°
2026-04-12 11:17 57.31752 7.05721 33237 ft 417 kts 162°
2026-04-12 11:17 57.29109 7.07745 33551 ft 416 kts 162°
2026-04-12 11:17 57.26431 7.09783 33868 ft 416 kts 162°
2026-04-12 11:17 57.23758 7.11814 34147 ft 416 kts 162°
2026-04-12 11:18 57.21085 7.13841 34363 ft 416 kts 163°
2026-04-12 11:18 57.18404 7.15873 34560 ft 417 kts 162°
2026-04-12 11:18 57.15723 7.17907 34766 ft 417 kts 163°
2026-04-12 11:18 57.13037 7.19941 34995 ft 418 kts 163°
2026-04-12 11:19 57.10345 7.21972 35228 ft 418 kts 163°
2026-04-12 11:19 57.07653 7.23997 35454 ft 417 kts 163°
2026-04-12 11:19 57.04964 7.26017 35683 ft 417 kts 163°
2026-04-12 11:19 57.02274 7.28036 35897 ft 417 kts 163°
2026-04-12 11:20 56.99588 7.30051 36111 ft 417 kts 163°
2026-04-12 11:20 56.96895 7.32070 36326 ft 418 kts 163°
2026-04-12 11:20 56.94207 7.34084 36526 ft 417 kts 163°
2026-04-12 11:20 56.91516 7.36094 36726 ft 417 kts 163°
2026-04-12 11:21 56.88826 7.38101 36918 ft 418 kts 163°
2026-04-12 11:21 56.86130 7.40107 36987 ft 420 kts 163°
2026-04-12 11:21 56.80658 7.44169 36989 ft 429 kts 163°
2026-04-12 11:22 56.75085 7.48300 36999 ft 434 kts 163°
2026-04-12 11:22 56.69515 7.52414 37000 ft 435 kts 163°
2026-04-12 11:23 56.63897 7.56546 36940 ft 435 kts 163°
2026-04-12 11:23 56.58268 7.60655 36998 ft 436 kts 164°
2026-04-12 11:24 56.52637 7.64767 37009 ft 436 kts 164°
2026-04-12 11:24 56.47006 7.68884 37018 ft 436 kts 164°
2026-04-12 11:25 56.41375 7.72989 37021 ft 436 kts 164°
2026-04-12 11:25 56.35746 7.77069 37021 ft 436 kts 164°
2026-04-12 11:26 56.30111 7.81116 37011 ft 436 kts 165°
2026-04-12 11:26 56.24482 7.85158 37028 ft 436 kts 165°
2026-04-12 11:27 56.18850 7.89204 37031 ft 435 kts 165°
2026-04-12 11:27 56.14175 7.92554 37032 ft 436 kts 165°
2026-04-12 11:28 56.08507 7.96595 37032 ft 435 kts 165°
2026-04-12 11:28 56.02917 8.00568 36998 ft 435 kts 166°
2026-04-12 11:29 55.97286 8.04548 37026 ft 434 kts 166°
2026-04-12 11:29 55.91671 8.08523 37032 ft 434 kts 166°
2026-04-12 11:30 55.86057 8.12476 37044 ft 434 kts 166°
2026-04-12 11:30 55.80443 8.16418 37052 ft 434 kts 166°
2026-04-12 11:31 55.74825 8.20353 37050 ft 433 kts 166°
2026-04-12 11:31 55.69251 8.24244 37053 ft 433 kts 166°
2026-04-12 11:32 55.63602 8.28163 37051 ft 433 kts 166°
2026-04-12 11:32 55.58027 8.32016 37055 ft 433 kts 166°
2026-04-12 11:33 55.52413 8.35894 37056 ft 433 kts 166°
2026-04-12 11:33 55.46809 8.39756 37019 ft 432 kts 166°
2026-04-12 11:34 55.41218 8.43613 37037 ft 431 kts 166°
2026-04-12 11:34 55.35623 8.47454 37059 ft 432 kts 166°
2026-04-12 11:35 55.30030 8.51276 37063 ft 432 kts 167°
2026-04-12 11:35 55.24430 8.55088 37071 ft 432 kts 167°
2026-04-12 11:36 55.18823 8.58881 37061 ft 431 kts 167°
2026-04-12 11:36 55.13227 8.62668 37063 ft 431 kts 167°
2026-04-12 11:37 55.07634 8.66434 37066 ft 431 kts 167°
2026-04-12 11:37 55.02038 8.70196 37068 ft 430 kts 167°
2026-04-12 11:38 54.96451 8.73943 37077 ft 430 kts 167°
2026-04-12 11:38 54.90871 8.77677 37042 ft 429 kts 167°
2026-04-12 11:39 54.85323 8.81606 37055 ft 432 kts 164°
2026-04-12 11:39 54.79833 8.85910 37062 ft 433 kts 163°
2026-04-12 11:40 54.74350 8.90233 37066 ft 433 kts 164°
2026-04-12 11:40 54.68841 8.94451 37069 ft 432 kts 164°
2026-04-12 11:41 54.63331 8.98600 37056 ft 432 kts 164°
2026-04-12 11:41 54.57818 9.02736 37063 ft 432 kts 164°
2026-04-12 11:42 54.52341 9.06855 37071 ft 432 kts 164°
2026-04-12 11:43 54.44084 9.13072 37018 ft 432 kts 164°
2026-04-12 11:43 54.38573 9.17201 37016 ft 432 kts 164°
2026-04-12 11:44 54.33063 9.21307 37030 ft 432 kts 164°
2026-04-12 11:44 54.27543 9.25408 37040 ft 432 kts 164°
2026-04-12 11:45 54.22024 9.29494 37050 ft 432 kts 164°
2026-04-12 11:45 54.16497 9.33572 37058 ft 433 kts 164°
2026-04-12 11:46 54.10964 9.37642 37043 ft 433 kts 165°
2026-04-12 11:46 54.05425 9.41718 37054 ft 433 kts 165°
2026-04-12 11:47 53.99884 9.45782 37061 ft 434 kts 165°
2026-04-12 11:47 53.94375 9.49817 37034 ft 434 kts 165°
2026-04-12 11:48 53.88818 9.53862 37040 ft 435 kts 165°
2026-04-12 11:48 53.83240 9.57904 37027 ft 436 kts 165°
2026-04-12 11:49 53.77641 9.61946 37038 ft 437 kts 165°
2026-04-12 11:49 53.72037 9.65992 37081 ft 438 kts 165°
2026-04-12 11:50 53.66428 9.70047 37089 ft 439 kts 165°
2026-04-12 11:50 53.60815 9.74085 37096 ft 439 kts 165°
2026-04-12 11:51 53.55232 9.78065 37083 ft 438 kts 165°
2026-04-12 11:51 53.49619 9.82072 37091 ft 438 kts 165°
2026-04-12 11:52 53.44001 9.86082 37089 ft 438 kts 165°
2026-04-12 11:52 53.38389 9.90067 37087 ft 438 kts 165°
2026-04-12 11:53 53.32772 9.94035 37088 ft 438 kts 165°
2026-04-12 11:53 53.27156 9.97993 37078 ft 438 kts 165°
2026-04-12 11:54 53.21535 10.01937 37083 ft 438 kts 165°
2026-04-12 11:54 53.15918 10.05885 37088 ft 438 kts 165°
2026-04-12 11:55 53.10334 10.09801 37089 ft 438 kts 165°
2026-04-12 11:55 53.04711 10.13718 37092 ft 438 kts 165°
2026-04-12 11:56 52.99093 10.17623 37082 ft 438 kts 165°
2026-04-12 11:56 52.93473 10.21518 37057 ft 439 kts 165°
2026-04-12 11:57 52.87826 10.25428 37060 ft 440 kts 165°
2026-04-12 11:57 52.82174 10.29325 37068 ft 440 kts 165°
2026-04-12 11:58 52.76516 10.33207 37054 ft 441 kts 165°
2026-04-12 11:58 52.70846 10.37096 37058 ft 441 kts 165°
2026-04-12 11:59 52.65184 10.40984 37066 ft 441 kts 165°
2026-04-12 11:59 52.59516 10.44856 37074 ft 441 kts 165°
2026-04-12 12:00 52.53850 10.48699 37060 ft 441 kts 165°
2026-04-12 12:00 52.48175 10.52545 37059 ft 442 kts 164°
2026-04-12 12:01 52.42466 10.56399 37070 ft 445 kts 164°
2026-04-12 12:01 52.36734 10.60276 37073 ft 445 kts 164°
2026-04-12 12:02 52.31004 10.64132 37075 ft 445 kts 164°
2026-04-12 12:02 52.25273 10.67967 37066 ft 445 kts 164°
2026-04-12 12:03 52.19565 10.71783 37067 ft 446 kts 164°
2026-04-12 12:03 52.13786 10.75631 37072 ft 446 kts 164°
2026-04-12 12:04 52.08045 10.79447 37079 ft 446 kts 164°
2026-04-12 12:04 52.02338 10.83230 37033 ft 446 kts 164°
2026-04-12 12:05 51.96540 10.87052 37045 ft 447 kts 164°
2026-04-12 12:05 51.90774 10.90854 37056 ft 448 kts 164°
2026-04-12 12:06 51.85038 10.94642 37064 ft 448 kts 164°
2026-04-12 12:06 51.79264 10.98437 37072 ft 448 kts 164°
2026-04-12 12:07 51.73482 11.02217 37062 ft 448 kts 164°
2026-04-12 12:07 51.67698 11.05980 37073 ft 448 kts 164°
2026-04-12 12:08 51.61917 11.09739 37077 ft 448 kts 164°
2026-04-12 12:08 51.56132 11.13496 37080 ft 448 kts 164°
2026-04-12 12:09 51.50344 11.17241 37045 ft 449 kts 164°
2026-04-12 12:09 51.44536 11.20987 37057 ft 450 kts 164°
2026-04-12 12:10 51.38723 11.24723 37063 ft 450 kts 164°
2026-04-12 12:10 51.32907 11.28455 37070 ft 450 kts 164°
2026-04-12 12:11 51.27082 11.32174 37081 ft 451 kts 164°
2026-04-12 12:11 51.21292 11.35866 37075 ft 451 kts 164°
2026-04-12 12:12 51.15467 11.39580 37080 ft 451 kts 164°
2026-04-12 12:12 51.09640 11.43283 37097 ft 451 kts 164°
2026-04-12 12:13 51.03940 11.46889 37067 ft 452 kts 164°